| time (UTC) | temp F | wind direction | speed MPH | gust MPH | rain 1hr in | rain 24hr in | rain mn in | humidity % | barometer mb |
| 20260906164055 | 99 | 87 | 1.0 | 7.0 | 0.00 | 0.00 | 0.00 | 45 | 1015.1 |
| 20260906163555 | 99 | 98 | 2.0 | 6.0 | 0.00 | 0.00 | 0.00 | 46 | 1015.1 |
| 20260906163100 | 99 | 169 | 1.0 | 4.0 | 0.00 | 0.00 | 0.00 | 45 | 1015.0 |
| 20260906162556 | 98 | 160 | 1.0 | 5.0 | 0.00 | 0.00 | 0.00 | 46 | 1015.1 |
| 20260906162055 | 98 | 113 | 2.0 | 5.0 | 0.00 | 0.00 | 0.00 | 47 | 1015.0 |
| 20260906161605 | 97 | 203 | 1.0 | 7.0 | 0.00 | 0.00 | 0.00 | 48 | 1015.0 |
| 20260906161055 | 97 | 0 | 2.0 | 8.0 | 0.00 | 0.00 | 0.00 | 48 | 1014.9 |
| 20260906160555 | 96 | 52 | 2.0 | 8.0 | 0.00 | 0.00 | 0.00 | 48 | 1014.9 |
| 20260906160101 | 97 | 67 | 2.0 | 6.0 | 0.00 | 0.00 | 0.00 | 48 | 1015.0 |
| 20260906155556 | 97 | 91 | 2.0 | 6.0 | 0.00 | 0.00 | 0.00 | 49 | 1015.0 |
| 20260906155059 | 96 | 107 | 1.0 | 9.0 | 0.00 | 0.00 | 0.00 | 51 | 1014.9 |
| 20260906154602 | 96 | 71 | 2.0 | 9.0 | 0.00 | 0.00 | 0.00 | 49 | 1015.0 |
| 20260906154058 | 96 | 136 | 1.0 | 7.0 | 0.00 | 0.00 | 0.00 | 51 | 1014.9 |
| 20260906153555 | 95 | 94 | 2.0 | 4.0 | 0.00 | 0.00 | 0.00 | 51 | 1014.9 |
| 20260906153104 | 95 | 0 | 1.0 | 4.0 | 0.00 | 0.00 | 0.00 | 53 | 1014.9 |
| 20260906152556 | 94 | 0 | 1.0 | 5.0 | 0.00 | 0.00 | 0.00 | 54 | 1014.7 |
| 20260906152055 | 94 | 86 | 1.0 | 5.0 | 0.00 | 0.00 | 0.00 | 54 | 1014.7 |
| 20260906151607 | 94 | 92 | 0.0 | 4.0 | 0.00 | 0.00 | 0.00 | 57 | 1014.5 |
| 20260906151056 | 93 | 74 | 0.0 | 2.0 | 0.00 | 0.00 | 0.00 | 57 | 1014.6 |
| 20260906150555 | 93 | 76 | 0.0 | 3.0 | 0.00 | 0.00 | 0.00 | 59 | 1014.5 |
| 20260906145556 | 92 | 74 | 1.0 | 3.0 | 0.00 | 0.00 | 0.00 | 60 | 1014.4 |
| 20260906145056 | 91 | 81 | 0.0 | 3.0 | 0.00 | 0.00 | 0.00 | 61 | 1014.4 |
| 20260906144629 | 91 | 83 | 1.0 | 4.0 | 0.00 | 0.00 | 0.00 | 61 | 1014.3 |
| 20260906144055 | 90 | 105 | 1.0 | 4.0 | 0.00 | 0.00 | 0.00 | 62 | 1014.3 |
| 20260906143556 | 90 | 110 | 1.0 | 3.0 | 0.00 | 0.00 | 0.00 | 64 | 1014.3 |
| 20260906143116 | 89 | 0 | 0.0 | 3.0 | 0.00 | 0.00 | 0.00 | 65 | 1014.3 |
| 20260906142555 | 88 | 142 | 0.0 | 3.0 | 0.00 | 0.00 | 0.00 | 68 | 1014.2 |
| 20260906142056 | 87 | 0 | 0.0 | 2.0 | 0.00 | 0.00 | 0.00 | 70 | 1014.3 |
| 20260906141605 | 86 | 0 | 0.0 | 2.0 | 0.00 | 0.00 | 0.00 | 72 | 1014.3 |
| 20260906141055 | 86 | 0 | 0.0 | 2.0 | 0.00 | 0.00 | 0.00 | 75 | 1014.4 |
| 20260906140556 | 85 | 0 | 0.0 | 1.0 | 0.00 | 0.00 | 0.00 | 78 | 1014.4 |
| 20260906135555 | 83 | 0 | 0.0 | 3.0 | 0.00 | 0.00 | 0.00 | 81 | 1014.4 |
| 20260906135056 | 82 | 0 | 0.0 | 2.0 | 0.00 | 0.00 | 0.00 | 81 | 1014.5 |
| 20260906134601 | 82 | 0 | 0.0 | 3.0 | 0.00 | 0.00 | 0.00 | 83 | 1014.5 |
| 20260906134056 | 81 | 0 | 0.0 | 3.0 | 0.00 | 0.00 | 0.00 | 84 | 1014.5 |
| 20260906133559 | 81 | 0 | 0.0 | 3.0 | 0.00 | 0.00 | 0.00 | 84 | 1014.5 |
| 20260906133109 | 80 | 130 | 0.0 | 3.0 | 0.00 | 0.00 | 0.00 | 85 | 1014.5 |
| 20260906132556 | 80 | 0 | 0.0 | 3.0 | 0.00 | 0.00 | 0.00 | 85 | 1014.6 |
| 20260906132058 | 79 | 0 | 0.0 | 0.0 | 0.00 | 0.00 | 0.00 | 86 | 1014.6 |
| 20260906131610 | 79 | 0 | 0.0 | 0.0 | 0.00 | 0.00 | 0.00 | 86 | 1014.5 |
| 20260906131055 | 78 | 0 | 0.0 | 0.0 | 0.00 | 0.00 | 0.00 | 87 | 1014.4 |
| 20260906130555 | 78 | 0 | 0.0 | 0.0 | 0.00 | 0.00 | 0.00 | 86 | 1014.4 |
| 20260906130103 | 78 | 0 | 0.0 | 0.0 | 0.00 | 0.00 | 0.00 | 86 | 1014.3 |
| 20260906125555 | 77 | 0 | 0.0 | 0.0 | 0.00 | 0.00 | 0.00 | 86 | 1014.2 |
| 20260906125054 | 77 | 0 | 0.0 | 0.0 | 0.00 | 0.00 | 0.00 | 86 | 1014.2 |
| 20260906124605 | 77 | 0 | 0.0 | 0.0 | 0.00 | 0.00 | 0.00 | 86 | 1014.2 |
| 20260906124056 | 76 | 0 | 0.0 | 0.0 | 0.00 | 0.00 | 0.00 | 86 | 1014.3 |
| 20260906123555 | 76 | 0 | 0.0 | 0.0 | 0.00 | 0.00 | 0.00 | 86 | 1014.3 |
| 20260906123111 | 76 | 0 | 0.0 | 0.0 | 0.00 | 0.00 | 0.00 | 86 | 1014.2 |
| 20260906122556 | 76 | 0 | 0.0 | 0.0 | 0.00 | 0.00 | 0.00 | 86 | 1014.2 |
| 20260906122057 | 76 | 0 | 0.0 | 0.0 | 0.00 | 0.00 | 0.00 | 86 | 1014.1 |
| 20260906121602 | 76 | 0 | 0.0 | 0.0 | 0.00 | 0.00 | 0.00 | 86 | 1014.1 |
| 20260906121056 | 76 | 0 | 0.0 | 0.0 | 0.00 | 0.00 | 0.00 | 86 | 1014.0 |
| 20260906120558 | 76 | 0 | 0.0 | 0.0 | 0.00 | 0.00 | 0.00 | 86 | 1013.9 |
| 20260906120113 | 76 | 0 | 0.0 | 0.0 | 0.00 | 0.00 | 0.00 | 86 | 1013.8 |
| 20260906115556 | 76 | 0 | 0.0 | 0.0 | 0.00 | 0.00 | 0.00 | 86 | 1013.9 |
| 20260906115057 | 76 | 0 | 0.0 | 0.0 | 0.00 | 0.00 | 0.00 | 86 | 1013.9 |
| 20260906114601 | 76 | 0 | 0.0 | 0.0 | 0.00 | 0.00 | 0.00 | 86 | 1013.8 |
| 20260906114056 | 76 | 0 | 0.0 | 0.0 | 0.00 | 0.00 | 0.00 | 86 | 1013.7 |
| 20260906113555 | 76 | 0 | 0.0 | 0.0 | 0.00 | 0.00 | 0.00 | 86 | 1013.7 |
| 20260906113103 | 76 | 0 | 0.0 | 0.0 | 0.00 | 0.00 | 0.00 | 86 | 1013.6 |
| 20260906112555 | 76 | 0 | 0.0 | 0.0 | 0.00 | 0.00 | 0.00 | 86 | 1013.6 |
| 20260906112055 | 76 | 0 | 0.0 | 0.0 | 0.00 | 0.00 | 0.00 | 86 | 1013.6 |
| 20260906111600 | 76 | 0 | 0.0 | 0.0 | 0.00 | 0.00 | 0.00 | 86 | 1013.6 |
| 20260906111059 | 76 | 0 | 0.0 | 0.0 | 0.00 | 0.00 | 0.00 | 86 | 1013.6 |
| 20260906110555 | 76 | 0 | 0.0 | 0.0 | 0.00 | 0.00 | 0.00 | 86 | 1013.6 |
| 20260906110111 | 76 | 0 | 0.0 | 0.0 | 0.00 | 0.00 | 0.00 | 86 | 1013.6 |
| 20260906105556 | 76 | 0 | 0.0 | 0.0 | 0.00 | 0.00 | 0.00 | 86 | 1013.5 |
| 20260906105056 | 76 | 0 | 0.0 | 0.0 | 0.00 | 0.00 | 0.00 | 86 | 1013.4 |
| 20260906104605 | 76 | 0 | 0.0 | 0.0 | 0.00 | 0.00 | 0.00 | 86 | 1013.4 |
| 20260906104058 | 76 | 0 | 0.0 | 0.0 | 0.00 | 0.00 | 0.00 | 86 | 1013.3 |
| 20260906103556 | 76 | 0 | 0.0 | 0.0 | 0.00 | 0.00 | 0.00 | 86 | 1013.3 |
| 20260906103105 | 76 | 0 | 0.0 | 0.0 | 0.00 | 0.00 | 0.00 | 86 | 1013.2 |
| 20260906102555 | 76 | 0 | 0.0 | 0.0 | 0.00 | 0.00 | 0.00 | 85 | 1013.2 |
| 20260906102055 | 76 | 0 | 0.0 | 0.0 | 0.00 | 0.00 | 0.00 | 85 | 1013.2 |
| 20260906101604 | 76 | 0 | 0.0 | 0.0 | 0.00 | 0.00 | 0.00 | 85 | 1013.2 |
| 20260906101055 | 76 | 0 | 0.0 | 0.0 | 0.00 | 0.00 | 0.00 | 85 | 1013.2 |
| 20260906100556 | 76 | 0 | 0.0 | 0.0 | 0.00 | 0.00 | 0.00 | 85 | 1013.2 |
| 20260906100110 | 76 | 0 | 0.0 | 0.0 | 0.00 | 0.00 | 0.00 | 85 | 1013.2 |
| 20260906095556 | 76 | 0 | 0.0 | 0.0 | 0.00 | 0.00 | 0.00 | 85 | 1013.3 |
| 20260906095059 | 76 | 0 | 0.0 | 0.0 | 0.00 | 0.00 | 0.00 | 85 | 1013.2 |
| 20260906094559 | 76 | 0 | 0.0 | 0.0 | 0.00 | 0.00 | 0.00 | 85 | 1013.3 |
| 20260906094055 | 76 | 0 | 0.0 | 1.0 | 0.00 | 0.00 | 0.00 | 85 | 1013.3 |
| 20260906093556 | 76 | 0 | 0.0 | 1.0 | 0.00 | 0.00 | 0.00 | 85 | 1013.2 |
| 20260906093117 | 76 | 0 | 0.0 | 1.0 | 0.00 | 0.00 | 0.00 | 84 | 1013.1 |
| 20260906092556 | 76 | 0 | 0.0 | 0.0 | 0.00 | 0.00 | 0.00 | 84 | 1013.0 |
| 20260906092056 | 77 | 0 | 0.0 | 0.0 | 0.00 | 0.00 | 0.00 | 84 | 1013.1 |
| 20260906091600 | 77 | 0 | 0.0 | 0.0 | 0.00 | 0.00 | 0.00 | 83 | 1013.0 |
| 20260906091059 | 77 | 0 | 0.0 | 0.0 | 0.00 | 0.00 | 0.00 | 83 | 1012.9 |
| 20260906090555 | 77 | 0 | 0.0 | 2.0 | 0.00 | 0.00 | 0.00 | 83 | 1012.8 |
| 20260906090124 | 77 | 0 | 0.0 | 2.0 | 0.00 | 0.00 | 0.00 | 82 | 1012.8 |
| 20260906085555 | 78 | 0 | 0.0 | 1.0 | 0.00 | 0.00 | 0.00 | 82 | 1012.7 |
| 20260906085055 | 78 | 0 | 0.0 | 2.0 | 0.00 | 0.00 | 0.00 | 81 | 1012.7 |
| 20260906084601 | 79 | 0 | 0.0 | 2.0 | 0.00 | 0.00 | 0.00 | 81 | 1012.8 |
| 20260906084056 | 79 | 0 | 0.0 | 2.0 | 0.00 | 0.00 | 0.00 | 81 | 1012.8 |
| 20260906083555 | 80 | 0 | 0.0 | 1.0 | 0.00 | 0.00 | 0.00 | 80 | 1012.6 |
| 20260906083103 | 81 | 0 | 0.0 | 1.0 | 0.00 | 0.00 | 0.00 | 80 | 1012.5 |
| 20260906082556 | 81 | 0 | 0.0 | 2.0 | 0.00 | 0.00 | 0.00 | 79 | 1012.4 |
| 20260906082057 | 82 | 0 | 0.0 | 2.0 | 0.00 | 0.00 | 0.00 | 78 | 1012.4 |
| 20260906081604 | 82 | 0 | 0.0 | 2.0 | 0.00 | 0.00 | 0.00 | 75 | 1012.4 |
| 20260906081059 | 82 | 0 | 0.0 | 3.0 | 0.00 | 0.00 | 0.00 | 73 | 1012.4 |
| 20260906080556 | 82 | 192 | 0.0 | 3.0 | 0.00 | 0.00 | 0.00 | 73 | 1012.5 |
| 20260906080104 | 82 | 0 | 0.0 | 3.0 | 0.00 | 0.00 | 0.00 | 73 | 1012.7 |
| 20260906075555 | 82 | 191 | 0.0 | 3.0 | 0.00 | 0.00 | 0.00 | 72 | 1012.7 |
| 20260906075055 | 82 | 0 | 0.0 | 2.0 | 0.00 | 0.00 | 0.00 | 72 | 1012.7 |
| 20260906074606 | 82 | 0 | 0.0 | 1.0 | 0.00 | 0.00 | 0.00 | 72 | 1012.7 |
| 20260906074055 | 82 | 191 | 0.0 | 1.0 | 0.00 | 0.00 | 0.00 | 72 | 1012.7 |
| 20260906073555 | 82 | 0 | 0.0 | 2.0 | 0.00 | 0.00 | 0.00 | 71 | 1012.8 |
| 20260906073100 | 82 | 0 | 0.0 | 2.0 | 0.00 | 0.00 | 0.00 | 71 | 1012.8 |
| 20260906072558 | 82 | 0 | 0.0 | 2.0 | 0.00 | 0.00 | 0.00 | 71 | 1012.9 |
| 20260906072056 | 82 | 0 | 0.0 | 2.0 | 0.00 | 0.00 | 0.00 | 70 | 1013.0 |
| 20260906071610 | 82 | 0 | 0.0 | 2.0 | 0.00 | 0.00 | 0.00 | 70 | 1013.1 |
| 20260906071056 | 82 | 0 | 0.0 | 1.0 | 0.00 | 0.00 | 0.00 | 70 | 1013.0 |
| 20260906070556 | 82 | 192 | 0.0 | 1.0 | 0.00 | 0.00 | 0.00 | 70 | 1013.2 |
| 20260906070103 | 82 | 0 | 0.0 | 2.0 | 0.00 | 0.00 | 0.00 | 70 | 1013.1 |
| 20260906065556 | 82 | 0 | 0.0 | 2.0 | 0.00 | 0.00 | 0.00 | 70 | 1013.1 |
| 20260906065055 | 83 | 0 | 0.0 | 2.0 | 0.00 | 0.00 | 0.00 | 69 | 1013.1 |
| 20260906064601 | 83 | 0 | 0.0 | 1.0 | 0.00 | 0.00 | 0.00 | 69 | 1013.0 |
| 20260906064056 | 83 | 0 | 0.0 | 2.0 | 0.00 | 0.00 | 0.00 | 69 | 1012.9 |
| 20260906063555 | 83 | 192 | 0.0 | 2.0 | 0.00 | 0.00 | 0.00 | 69 | 1012.9 |
| 20260906063106 | 83 | 0 | 0.0 | 2.0 | 0.00 | 0.00 | 0.00 | 68 | 1012.9 |
| 20260906062555 | 83 | 0 | 0.0 | 2.0 | 0.00 | 0.00 | 0.00 | 68 | 1012.9 |
| 20260906062059 | 83 | 0 | 0.0 | 3.0 | 0.00 | 0.00 | 0.00 | 68 | 1012.8 |
| 20260906061602 | 83 | 0 | 1.0 | 3.0 | 0.00 | 0.00 | 0.00 | 68 | 1013.0 |
| 20260906061055 | 83 | 0 | 0.0 | 2.0 | 0.00 | 0.00 | 0.00 | 68 | 1013.1 |
| 20260906060555 | 83 | 192 | 0.0 | 2.0 | 0.00 | 0.00 | 0.00 | 67 | 1012.9 |
| 20260906060106 | 84 | 0 | 0.0 | 3.0 | 0.00 | 0.00 | 0.00 | 67 | 1012.9 |
| 20260906055555 | 84 | 0 | 0.0 | 3.0 | 0.00 | 0.00 | 0.00 | 67 | 1013.0 |
| 20260906055056 | 84 | 191 | 0.0 | 2.0 | 0.00 | 0.00 | 0.00 | 66 | 1013.0 |
| 20260906054612 | 84 | 191 | 0.0 | 1.0 | 0.00 | 0.00 | 0.00 | 66 | 1013.1 |
| 20260906054056 | 84 | 0 | 0.0 | 1.0 | 0.00 | 0.00 | 0.00 | 65 | 1013.2 |
| 20260906053556 | 84 | 0 | 0.0 | 1.0 | 0.00 | 0.00 | 0.00 | 65 | 1013.2 |
| 20260906053102 | 84 | 0 | 0.0 | 2.0 | 0.00 | 0.00 | 0.00 | 65 | 1013.2 |
| 20260906052555 | 85 | 0 | 0.0 | 2.0 | 0.00 | 0.00 | 0.00 | 65 | 1013.1 |
| 20260906052056 | 85 | 0 | 0.0 | 2.0 | 0.00 | 0.00 | 0.00 | 65 | 1013.1 |
| 20260906051606 | 85 | 0 | 0.0 | 2.0 | 0.00 | 0.00 | 0.00 | 64 | 1013.2 |
| 20260906051055 | 85 | 0 | 0.0 | 0.0 | 0.00 | 0.00 | 0.00 | 64 | 1013.0 |
| 20260906050555 | 85 | 0 | 0.0 | 1.0 | 0.00 | 0.00 | 0.00 | 64 | 1013.0 |
| 20260906050133 | 85 | 0 | 0.0 | 4.0 | 0.00 | 0.00 | 0.00 | 63 | 1013.0 |
| 20260906045556 | 85 | 0 | 0.0 | 4.0 | 0.00 | 0.00 | 0.00 | 63 | 1013.1 |
| 20260906045058 | 85 | 190 | 0.0 | 4.0 | 0.00 | 0.00 | 0.00 | 63 | 1013.1 |
| 20260906044604 | 85 | 190 | 0.0 | 3.0 | 0.00 | 0.00 | 0.00 | 63 | 1013.1 |
| 20260906044056 | 86 | 0 | 0.0 | 3.0 | 0.00 | 0.00 | 0.00 | 62 | 1013.2 |
| 20260906043555 | 86 | 0 | 0.0 | 3.0 | 0.00 | 0.00 | 0.00 | 62 | 1013.2 |
| 20260906043109 | 86 | 0 | 0.0 | 2.0 | 0.00 | 0.00 | 0.00 | 62 | 1013.2 |
| 20260906042556 | 86 | 0 | 0.0 | 3.0 | 0.00 | 0.00 | 0.00 | 61 | 1013.1 |
| 20260906042058 | 86 | 0 | 0.0 | 3.0 | 0.00 | 0.00 | 0.00 | 61 | 1013.1 |
| 20260906041602 | 86 | 0 | 0.0 | 3.0 | 0.00 | 0.00 | 0.00 | 61 | 1013.0 |
| 20260906041055 | 87 | 0 | 0.0 | 3.0 | 0.00 | 0.00 | 0.00 | 60 | 1012.9 |
| 20260906040556 | 87 | 0 | 0.0 | 3.0 | 0.00 | 0.00 | 0.00 | 60 | 1012.9 |
| 20260906040104 | 87 | 0 | 0.0 | 4.0 | 0.00 | 0.00 | 0.00 | 60 | 1012.9 |
| 20260906035556 | 87 | 0 | 0.0 | 4.0 | 0.00 | 0.00 | 0.00 | 60 | 1012.9 |
| 20260906035056 | 87 | 179 | 0.0 | 2.0 | 0.00 | 0.00 | 0.00 | 59 | 1013.1 |
| 20260906034601 | 87 | 0 | 0.0 | 3.0 | 0.00 | 0.00 | 0.00 | 59 | 1013.0 |
| 20260906034059 | 87 | 184 | 0.0 | 3.0 | 0.00 | 0.00 | 0.00 | 59 | 1013.0 |
| 20260906033556 | 88 | 182 | 0.0 | 3.0 | 0.00 | 0.00 | 0.00 | 58 | 1013.1 |
| 20260906033101 | 88 | 0 | 0.0 | 5.0 | 0.00 | 0.00 | 0.00 | 58 | 1013.0 |
| 20260906032555 | 88 | 92 | 0.0 | 5.0 | 0.00 | 0.00 | 0.00 | 58 | 1013.1 |
| 20260906032056 | 88 | 150 | 0.0 | 4.0 | 0.00 | 0.00 | 0.00 | 57 | 1013.1 |
| 20260906031601 | 88 | 142 | 1.0 | 6.0 | 0.00 | 0.00 | 0.00 | 57 | 1013.0 |
| 20260906031056 | 89 | 161 | 0.0 | 6.0 | 0.00 | 0.00 | 0.00 | 57 | 1013.0 |
| 20260906030556 | 89 | 0 | 1.0 | 6.0 | 0.00 | 0.00 | 0.00 | 56 | 1013.0 |
| 20260906030135 | 89 | 0 | 0.0 | 4.0 | 0.00 | 0.00 | 0.00 | 56 | 1013.0 |
| 20260906025556 | 89 | 0 | 1.0 | 4.0 | 0.00 | 0.00 | 0.00 | 56 | 1012.9 |
| 20260906025056 | 90 | 0 | 1.0 | 4.0 | 0.00 | 0.00 | 0.00 | 55 | 1012.8 |
| 20260906024603 | 90 | 109 | 0.0 | 5.0 | 0.00 | 0.00 | 0.00 | 54 | 1012.7 |
| 20260906024055 | 90 | 175 | 1.0 | 8.0 | 0.00 | 0.00 | 0.00 | 54 | 1012.6 |
| 20260906023556 | 90 | 148 | 1.0 | 8.0 | 0.00 | 0.00 | 0.00 | 54 | 1012.5 |
| 20260906023126 | 91 | 192 | 1.0 | 7.0 | 0.00 | 0.00 | 0.00 | 53 | 1012.5 |
| 20260906022555 | 91 | 117 | 1.0 | 8.0 | 0.00 | 0.00 | 0.00 | 52 | 1012.4 |
| 20260906022057 | 91 | 149 | 2.0 | 8.0 | 0.00 | 0.00 | 0.00 | 51 | 1012.2 |
| 20260906021614 | 92 | 108 | 2.0 | 5.0 | 0.00 | 0.00 | 0.00 | 50 | 1012.2 |
| 20260906021057 | 92 | 86 | 0.0 | 2.0 | 0.00 | 0.00 | 0.00 | 47 | 1012.0 |
| 20260906020555 | 92 | 0 | 0.0 | 2.0 | 0.00 | 0.00 | 0.00 | 47 | 1012.0 |
| 20260906015555 | 93 | 0 | 0.0 | 2.0 | 0.00 | 0.00 | 0.00 | 46 | 1011.9 |
| 20260906015056 | 93 | 0 | 0.0 | 1.0 | 0.00 | 0.00 | 0.00 | 45 | 1011.7 |
| 20260906014621 | 93 | 0 | 0.0 | 1.0 | 0.00 | 0.00 | 0.00 | 45 | 1011.6 |
| 20260906014055 | 93 | 0 | 0.0 | 1.0 | 0.00 | 0.00 | 0.00 | 44 | 1011.6 |
| 20260906013555 | 93 | 0 | 0.0 | 1.0 | 0.00 | 0.00 | 0.00 | 44 | 1011.6 |
| 20260906013102 | 94 | 0 | 0.0 | 1.0 | 0.00 | 0.00 | 0.00 | 43 | 1011.6 |
| 20260906012555 | 94 | 0 | 0.0 | 1.0 | 0.00 | 0.00 | 0.00 | 43 | 1011.5 |
| 20260906012055 | 94 | 0 | 0.0 | 1.0 | 0.00 | 0.00 | 0.00 | 43 | 1011.4 |
| 20260906011607 | 95 | 0 | 0.0 | 1.0 | 0.00 | 0.00 | 0.00 | 42 | 1011.3 |
| 20260906011056 | 95 | 0 | 0.0 | 1.0 | 0.00 | 0.00 | 0.00 | 42 | 1011.4 |
| 20260906010555 | 95 | 0 | 0.0 | 3.0 | 0.00 | 0.00 | 0.00 | 41 | 1011.2 |
| 20260906010104 | 96 | 0 | 0.0 | 3.0 | 0.00 | 0.00 | 0.00 | 41 | 1011.2 |
| 20260906005555 | 96 | 84 | 0.0 | 3.0 | 0.00 | 0.00 | 0.00 | 41 | 1011.1 |
| 20260906005055 | 96 | 117 | 0.0 | 3.0 | 0.00 | 0.00 | 0.00 | 41 | 1011.1 |
| 20260906004609 | 97 | 116 | 1.0 | 6.0 | 0.00 | 0.00 | 0.00 | 40 | 1011.2 |
| 20260906004056 | 97 | 0 | 0.0 | 6.0 | 0.00 | 0.00 | 0.00 | 40 | 1011.2 |
| 20260906003556 | 97 | 112 | 1.0 | 6.0 | 0.00 | 0.00 | 0.00 | 39 | 1011.1 |
| 20260906003109 | 98 | 0 | 0.0 | 4.0 | 0.00 | 0.00 | 0.00 | 39 | 1011.1 |
| 20260906002555 | 98 | 0 | 0.0 | 5.0 | 0.00 | 0.00 | 0.00 | 39 | 1011.1 |
| 20260906002056 | 98 | 0 | 0.0 | 6.0 | 0.00 | 0.00 | 0.00 | 39 | 1011.2 |
| 20260906001604 | 98 | 73 | 1.0 | 6.0 | 0.00 | 0.00 | 0.00 | 39 | 1011.1 |
| 20260906001056 | 98 | 88 | 1.0 | 6.0 | 0.00 | 0.00 | 0.00 | 39 | 1011.1 |
| 20260906000555 | 99 | 94 | 2.0 | 7.0 | 0.00 | 0.00 | 0.00 | 38 | 1011.1 |
| 20260905235556 | 99 | 73 | 2.0 | 7.0 | 0.00 | 0.00 | 0.00 | 37 | 1011.0 |
| 20260905235056 | 100 | 94 | 1.0 | 7.0 | 0.00 | 0.00 | 0.00 | 37 | 1011.0 |
| 20260905234615 | 100 | 95 | 1.0 | 7.0 | 0.00 | 0.00 | 0.00 | 37 | 1011.0 |
| 20260905234056 | 100 | 67 | 2.0 | 6.0 | 0.00 | 0.00 | 0.00 | 37 | 1010.9 |
| 20260905233556 | 101 | 126 | 1.0 | 6.0 | 0.00 | 0.00 | 0.00 | 36 | 1010.9 |
| 20260905233059 | 101 | 136 | 1.0 | 7.0 | 0.00 | 0.00 | 0.00 | 36 | 1010.9 |
| 20260905232555 | 101 | 76 | 2.0 | 7.0 | 0.00 | 0.00 | 0.00 | 36 | 1010.9 |
| 20260905232056 | 101 | 88 | 1.0 | 6.0 | 0.00 | 0.00 | 0.00 | 35 | 1010.9 |
| 20260905231603 | 101 | 99 | 1.0 | 6.0 | 0.00 | 0.00 | 0.00 | 35 | 1011.0 |
| 20260905231055 | 102 | 66 | 0.0 | 6.0 | 0.00 | 0.00 | 0.00 | 35 | 1010.9 |
| 20260905230555 | 102 | 90 | 2.0 | 6.0 | 0.00 | 0.00 | 0.00 | 35 | 1010.9 |
| 20260905230103 | 102 | 63 | 2.0 | 6.0 | 0.00 | 0.00 | 0.00 | 35 | 1010.9 |
| 20260905225559 | 102 | 107 | 1.0 | 6.0 | 0.00 | 0.00 | 0.00 | 35 | 1010.9 |
| 20260905225056 | 102 | 101 | 0.0 | 4.0 | 0.00 | 0.00 | 0.00 | 35 | 1010.9 |
| 20260905224609 | 101 | 0 | 1.0 | 8.0 | 0.00 | 0.00 | 0.00 | 35 | 1010.9 |
| 20260905224056 | 101 | 73 | 1.0 | 8.0 | 0.00 | 0.00 | 0.00 | 35 | 1010.8 |
| 20260905223557 | 102 | 65 | 3.0 | 11.0 | 0.00 | 0.00 | 0.00 | 35 | 1010.9 |
| 20260905223104 | 102 | 82 | 4.0 | 11.0 | 0.00 | 0.00 | 0.00 | 36 | 1011.0 |
| 20260905222555 | 102 | 79 | 2.0 | 10.0 | 0.00 | 0.00 | 0.00 | 35 | 1010.9 |
| 20260905222055 | 103 | 67 | 5.0 | 10.0 | 0.00 | 0.00 | 0.00 | 34 | 1010.9 |
| 20260905221602 | 103 | 87 | 3.0 | 9.0 | 0.00 | 0.00 | 0.00 | 34 | 1011.0 |
| 20260905221056 | 104 | 68 | 2.0 | 5.0 | 0.00 | 0.00 | 0.00 | 34 | 1011.0 |
| 20260905220555 | 104 | 55 | 1.0 | 6.0 | 0.00 | 0.00 | 0.00 | 34 | 1011.1 |
| 20260905220106 | 104 | 88 | 1.0 | 6.0 | 0.00 | 0.00 | 0.00 | 35 | 1011.1 |
| 20260905215555 | 104 | 152 | 1.0 | 9.0 | 0.00 | 0.00 | 0.00 | 36 | 1011.0 |
| 20260905215056 | 104 | 81 | 3.0 | 9.0 | 0.00 | 0.00 | 0.00 | 35 | 1011.1 |
| 20260905214610 | 104 | 186 | 2.0 | 10.0 | 0.00 | 0.00 | 0.00 | 34 | 1011.2 |
| 20260905214056 | 104 | 132 | 3.0 | 10.0 | 0.00 | 0.00 | 0.00 | 35 | 1011.3 |
| 20260905213556 | 105 | 199 | 1.0 | 6.0 | 0.00 | 0.00 | 0.00 | 34 | 1011.3 |
| 20260905213114 | 105 | 192 | 1.0 | 7.0 | 0.00 | 0.00 | 0.00 | 34 | 1011.4 |
| 20260905212556 | 105 | 62 | 2.0 | 7.0 | 0.00 | 0.00 | 0.00 | 34 | 1011.3 |
| 20260905212056 | 105 | 211 | 2.0 | 7.0 | 0.00 | 0.00 | 0.00 | 34 | 1011.3 |
| 20260905211607 | 105 | 67 | 1.0 | 6.0 | 0.00 | 0.00 | 0.00 | 35 | 1011.4 |
| 20260905211055 | 105 | 164 | 0.0 | 5.0 | 0.00 | 0.00 | 0.00 | 34 | 1011.3 |
| 20260905210555 | 105 | 170 | 1.0 | 5.0 | 0.00 | 0.00 | 0.00 | 34 | 1011.6 |
| 20260905210106 | 105 | 202 | 1.0 | 9.0 | 0.00 | 0.00 | 0.00 | 35 | 1011.6 |
| 20260905205556 | 105 | 129 | 2.0 | 9.0 | 0.00 | 0.00 | 0.00 | 36 | 1011.7 |
| 20260905205100 | 104 | 0 | 3.0 | 9.0 | 0.00 | 0.00 | 0.00 | 36 | 1011.8 |
| 20260905204602 | 104 | 184 | 1.0 | 4.0 | 0.00 | 0.00 | 0.00 | 36 | 1011.8 |
| 20260905204055 | 104 | 187 | 0.0 | 5.0 | 0.00 | 0.00 | 0.00 | 36 | 1011.9 |
| 20260905203600 | 104 | 163 | 0.0 | 9.0 | 0.00 | 0.00 | 0.00 | 36 | 1012.0 |
| 20260905203108 | 103 | 165 | 1.0 | 9.0 | 0.00 | 0.00 | 0.00 | 36 | 1012.1 |
| 20260905202555 | 103 | 76 | 3.0 | 8.0 | 0.00 | 0.00 | 0.00 | 36 | 1012.3 |
| 20260905202055 | 104 | 252 | 0.0 | 4.0 | 0.00 | 0.00 | 0.00 | 37 | 1012.3 |
| 20260905201606 | 104 | 0 | 0.0 | 10.0 | 0.00 | 0.00 | 0.00 | 35 | 1012.4 |
| 20260905201056 | 104 | 249 | 2.0 | 10.0 | 0.00 | 0.00 | 0.00 | 36 | 1012.4 |
| 20260905200556 | 103 | 169 | 2.0 | 9.0 | 0.00 | 0.00 | 0.00 | 37 | 1012.5 |
| 20260905195555 | 103 | 83 | 2.0 | 9.0 | 0.00 | 0.00 | 0.00 | 37 | 1012.7 |
| 20260905195055 | 104 | 89 | 3.0 | 9.0 | 0.00 | 0.00 | 0.00 | 36 | 1012.7 |
| 20260905194559 | 105 | 70 | 1.0 | 7.0 | 0.00 | 0.00 | 0.00 | 37 | 1012.8 |
| 20260905194056 | 105 | 148 | 2.0 | 7.0 | 0.00 | 0.00 | 0.00 | 36 | 1012.9 |
| 20260905193556 | 105 | 66 | 1.0 | 7.0 | 0.00 | 0.00 | 0.00 | 36 | 1013.0 |
| 20260905193106 | 104 | 94 | 2.0 | 7.0 | 0.00 | 0.00 | 0.00 | 37 | 1013.1 |
| 20260905192558 | 105 | 0 | 2.0 | 7.0 | 0.00 | 0.00 | 0.00 | 36 | 1013.2 |
| 20260905192100 | 104 | 248 | 1.0 | 7.0 | 0.00 | 0.00 | 0.00 | 36 | 1013.3 |
| 20260905191614 | 104 | 175 | 2.0 | 7.0 | 0.00 | 0.00 | 0.00 | 37 | 1013.4 |
| 20260905191057 | 104 | 124 | 1.0 | 7.0 | 0.00 | 0.00 | 0.00 | 36 | 1013.5 |
| 20260905190558 | 104 | 89 | 1.0 | 6.0 | 0.00 | 0.00 | 0.00 | 36 | 1013.6 |
| 20260905190106 | 104 | 101 | 2.0 | 6.0 | 0.00 | 0.00 | 0.00 | 36 | 1013.6 |
| 20260905185600 | 104 | 158 | 2.0 | 7.0 | 0.00 | 0.00 | 0.00 | 37 | 1013.6 |
| 20260905185056 | 103 | 190 | 2.0 | 7.0 | 0.00 | 0.00 | 0.00 | 37 | 1013.7 |
| 20260905184616 | 103 | 242 | 1.0 | 5.0 | 0.00 | 0.00 | 0.00 | 38 | 1013.8 |
| 20260905184057 | 103 | 0 | 1.0 | 5.0 | 0.00 | 0.00 | 0.00 | 39 | 1013.8 |
| 20260905183555 | 103 | 107 | 1.0 | 8.0 | 0.00 | 0.00 | 0.00 | 39 | 1013.9 |
| 20260905183106 | 103 | 152 | 1.0 | 8.0 | 0.00 | 0.00 | 0.00 | 38 | 1013.8 |
| 20260905182559 | 102 | 103 | 2.0 | 5.0 | 0.00 | 0.00 | 0.00 | 38 | 1013.9 |
| 20260905182058 | 102 | 0 | 1.0 | 4.0 | 0.00 | 0.00 | 0.00 | 39 | 1013.9 |
| 20260905181606 | 102 | 177 | 1.0 | 4.0 | 0.00 | 0.00 | 0.00 | 39 | 1014.0 |
| 20260905181056 | 103 | 0 | 1.0 | 8.0 | 0.00 | 0.00 | 0.00 | 39 | 1014.2 |
| 20260905180556 | 103 | 181 | 4.0 | 8.0 | 0.00 | 0.00 | 0.00 | 38 | 1014.3 |
| 20260905180105 | 102 | 133 | 1.0 | 7.0 | 0.00 | 0.00 | 0.00 | 39 | 1014.4 |
| 20260905175557 | 102 | 194 | 2.0 | 8.0 | 0.00 | 0.00 | 0.00 | 40 | 1014.5 |
| 20260905175056 | 102 | 94 | 2.0 | 8.0 | 0.00 | 0.00 | 0.00 | 40 | 1014.6 |
| 20260905174621 | 102 | 214 | 1.0 | 7.0 | 0.00 | 0.00 | 0.00 | 39 | 1014.6 |
| 20260905174055 | 102 | 80 | 2.0 | 7.0 | 0.00 | 0.00 | 0.00 | 41 | 1014.7 |
| 20260905173555 | 102 | 115 | 2.0 | 7.0 | 0.00 | 0.00 | 0.00 | 40 | 1014.8 |
| 20260905173112 | 102 | 86 | 2.0 | 7.0 | 0.00 | 0.00 | 0.00 | 39 | 1014.7 |
| 20260905172556 | 102 | 215 | 2.0 | 6.0 | 0.00 | 0.00 | 0.00 | 40 | 1014.7 |
| 20260905172056 | 102 | 184 | 1.0 | 7.0 | 0.00 | 0.00 | 0.00 | 40 | 1014.8 |
| 20260905171600 | 101 | 235 | 2.0 | 7.0 | 0.00 | 0.00 | 0.00 | 40 | 1014.9 |
| 20260905171059 | 101 | 180 | 1.0 | 8.0 | 0.00 | 0.00 | 0.00 | 40 | 1014.8 |
| 20260905170556 | 101 | 69 | 3.0 | 8.0 | 0.00 | 0.00 | 0.00 | 40 | 1014.9 |
| 20260905170106 | 101 | 80 | 2.0 | 5.0 | 0.00 | 0.00 | 0.00 | 41 | 1014.9 |
| 20260905165557 | 101 | 137 | 1.0 | 5.0 | 0.00 | 0.00 | 0.00 | 41 | 1014.9 |
| 20260905165059 | 101 | 215 | 2.0 | 5.0 | 0.00 | 0.00 | 0.00 | 42 | 1014.8 |
| 20260905164603 | 100 | 101 | 1.0 | 4.0 | 0.00 | 0.00 | 0.00 | 43 | 1014.9 |